Flag for Brazil

Past Weather in Itabuna, Bahia, Brazil — Yesterday and Last 2 Weeks

Now
81 °F

Passing clouds.


Feels Like: 83 °F
Forecast: 86 / 63 °F
Wind: 10 mph from Southeast

Location: Salvador Aeroporto
Current Time: Sep 18, 2020 at 3:11:43 pm
Latest Report: Sep 18, 2020 at 2:00 pm
Visibility: N/A
Pressure29.95 "Hg
Humidity: 62%
Dew Point: 66 °F
Location of ItabunaLocation

Past Weather in Itabuna — Graph

°F

Itabuna Temperature Yesterday

Maximum temperature yesterday: 81 °F (at 10:00 am)
Minimum temperature yesterday: 68 °F (at 5:00 am)
Average temperature yesterday: 77 °F

High & Low Weather Summary for the Past Weeks

 TemperatureHumidityPressure
High82 °F (Sep 5, 12:00 pm)94% (Sep 4, 3:00 am)30.18 "Hg (Sep 4, 3:00 am)
Low68 °F (Sep 17, 5:00 am)54% (Sep 10, 10:00 am)29.95 "Hg (Sep 7, 2:00 am)
Average77 °F76%30.05 "Hg
* Reported Sep 3 2:00 pm — Sep 18 2:00 pm, Itabuna. Weather by CustomWeather, © 2020

Note: Actual official high and low records may vary slightly from our data, if they occured in-between our weather recording intervals... More about our weather records

Itabuna Weather History for the Previous 24 Hours

Scroll right to see more
 ConditionsComfort  
Time TempWeatherWind HumidityBarometerVisibility
2:00 pm
Fri, Sep 18
81 °FPassing clouds.10 mph62%29.95 "HgN/A
1:00 pm81 °FPassing clouds.9 mph62%29.98 "HgN/A
12:00 pm81 °FScattered clouds.10 mph62%30.01 "HgN/A
11:00 am81 °FScattered clouds.10 mph66%30.04 "HgN/A
10:00 am81 °FScattered clouds.8 mph62%30.07 "HgN/A
9:00 am79 °FScattered clouds.7 mph70%30.07 "HgN/A
8:00 am79 °FPassing clouds.2 mph70%30.04 "HgN/A
7:00 am73 °FScattered clouds.2 mph83%30.01 "HgN/A
6:00 am70 °FPassing clouds.2 mph88%30.01 "HgN/A
5:00 am68 °FPassing clouds.3 mph88%29.98 "HgN/A
4:00 am68 °FClear.2 mph94%29.98 "Hg10 mi
3:00 am70 °FClear.1 mph88%29.98 "Hg10 mi
2:00 am70 °FClear.2 mph88%29.98 "Hg10 mi
1:00 am75 °FClear.5 mph74%30.01 "Hg10 mi
12:00 am77 °FPassing clouds.6 mph65%30.04 "HgN/A
11:00 pm
Thu, Sep 17
77 °FPassing clouds.6 mph65%30.04 "HgN/A
10:00 pm77 °FPassing clouds.7 mph65%30.04 "HgN/A
9:00 pm77 °FPassing clouds.6 mph65%30.04 "HgN/A
8:00 pm77 °FPassing clouds.6 mph69%30.01 "HgN/A
7:00 pm77 °FPassing clouds.7 mph74%29.98 "HgN/A
6:00 pm77 °FPassing clouds.7 mph69%29.98 "HgN/A
5:00 pm79 °FPassing clouds.9 mph65%29.95 "HgN/A
4:00 pm81 °FPassing clouds.10 mph62%29.98 "HgN/A
3:00 pm81 °FPassing clouds.10 mph62%29.98 "HgN/A
Weather by CustomWeather, © 2020

See weather overview